Station 46131 - Sentry Shoal Image indicating link to RSS feed of recent meteorological observations for station 46131

Data from this station are not quality controlled by NDBC


Conditions at 46131 as of
(3:00 am PDT)
1000 GMT on 04/14/2024:
     

Click on the graph icon in the table below to see a time series plot of the last five days of that observation.

5-day plot - Wind Direction Wind Direction (WDIR):NNW ( 330 deg true )
5-day plot - Wind Speed Wind Speed (WSPD): 11.7 kts
5-day plot - Wind Gust Wind Gust (GST): 13.6 kts
5-day plot - Wave Height Wave Height (WVHT): 1.3 ft
5-day plot - Dominant Wave Period Dominant Wave Period (DPD): 3 sec
5-day plot - Atmospheric Pressure Atmospheric Pressure (PRES):29.98 in
5-day plot - Pressure Tendency Pressure Tendency (PTDY):+0.01 in ( Rising )
5-day plot - Air Temperature Air Temperature (ATMP): 47.5 °F
5-day plot - Water Temperature Water Temperature (WTMP): 48.2 °F
5-day plot - Wind Chill Wind Chill (CHILL): 41.9 °F
5-day plot -  Wind Speed, Wind Gust and Atmospheric Pressure Combined plot of Wind Speed, Gust, and Air Pressure

Data from this station are not quality controlled by NDBC

Previous observations
TIME
(PDT)
5-day plot - Wind Direction
WDIR
 
5-day plot - Wind Speed
WSPD
kts
5-day plot - Wind Gust
GST
kts
5-day plot - Wave Height
WVHT
ft
5-day plot - Dominant Wave Period
DPD
sec
5-day plot - Average Wave Period
APD
sec
5-day plot - Mean Wave Direction
MWD
 
5-day plot - Atmospheric Pressure
PRES
in
5-day plot - Pressure Tendency
PTDY
in
5-day plot - Air Temperature
ATMP
°F
5-day plot - Water Temperature
WTMP
°F
5-day plot - Dew Point
DEWP
°F
5-day plot - Salinity
SAL
psu
5-day plot - Visibility
VIS
nmi
5-day plot - Tide (above MLLW)
TIDE
ft
2024-04-14 02:00 amNNW 15.5 17.5 1.0 3--29.98+0.01 47.8 48.2----
2024-04-14 01:00 amNNW 13.6 15.5 1.0 3--29.97+0.01 48.4 48.2----
2024-04-14 12:00 am N 13.6 15.5 1.0 3--29.98+0.03 49.1 48.4----
2024-04-13 11:00 pmNNW 11.7 13.6 0.7 2--29.96+0.02 50.0 48.4----
2024-04-13 10:00 pmNNW 11.7 13.6 0.7 2--29.96+0.02 51.3 48.7----
2024-04-13 09:00 pmNNW 11.7 13.6 0.7 2--29.95+0.01 52.7 48.9----
2024-04-13 08:00 pmNNW 9.7 11.7 0.3 2--29.94-0.01 53.4 49.6----
2024-04-13 07:00 pmNNW 9.7 9.7 0.0 2--29.93-0.03 55.0 50.5----
2024-04-13 06:00 pm SW 3.9 3.9 0.0 3--29.95-0.04 53.2 50.5----
2024-04-13 05:00 pmWNW 3.9 3.9 0.0 3--29.95-0.05 52.7 49.8----
2024-04-13 04:00 pm N 3.9 3.9 0.3 3--29.97-0.04 54.1 49.8----
2024-04-13 03:00 pm N 5.8 5.8 0.3 3--29.99-0.03 52.0 49.5----
2024-04-13 02:00 pm N 3.9 5.8 0.3 2--30.01-0.01 50.2 48.7----
2024-04-13 01:00 pm N 5.8 7.8 0.3 2--30.01-0.01 48.6 48.4----
2024-04-13 12:00 pm N 7.8 7.8 0.7 2--30.02+0.01 47.8 47.8----
2024-04-13 11:00 amNNW 11.7 11.7 1.0 3--30.02+0.03 46.8 47.7----
2024-04-13 10:00 amNNW 13.6 15.5 1.0 3--30.01+0.03 46.0 47.5----
2024-04-13 09:00 amWNW 13.6 15.5 1.0 3--30.01+0.04 45.1 47.5----
2024-04-13 08:00 am NW 13.6 15.5 1.3 3--29.99+0.02 44.6 47.3----
2024-04-13 07:00 am NW 15.5 17.5 1.0 3--29.98+0.02 44.4 47.3----
2024-04-13 06:00 am NW 15.5 17.5 1.0 3--29.97+0.02 44.4 47.5----
2024-04-13 05:00 am NW 11.7 13.6 1.0 3--29.97+0.02 44.6 47.5----
2024-04-13 04:00 amNNW 13.6 15.5 1.3 3--29.96+0.01 45.1 47.7----
2024-04-13 03:00 amNNW 13.6 15.5 1.3 3--29.95+0.00 45.5 47.8----